Change the Weather History Date:

Wednesday, January 12, 2011

  Actual Average Record
Temperature  
Mean Temperature 20 °F 29 °F  
Max Temperature 21 °F 38 °F 66 °F (2005)
Min Temperature 18 °F 20 °F -5 °F (1997)
Degree Days  
Heating Degree Days 45 36  
Month to date heating degree days 473 432  
Since 1 July heating degree days 2644 2505  
Cooling Degree Days 0 0  
Month to date cooling degree days 0 0  
Year to date cooling degree days 0 0  
Moisture  
Dew Point 15 °F    
Average Humidity 84    
Maximum Humidity 91    
Minimum Humidity 77    
Precipitation  
Precipitation T in 0.12 in 1.16 in (2013)
Month to date precipitation 0.95 1.52  
Year to date precipitation 0.95 1.52  
Sea Level Pressure  
Sea Level Pressure 30.38 in    
Wind  
Wind Speed 11 mph (West)    
Max Wind Speed 18 mph    
Max Gust Speed 26 mph    
Visibility 3 miles    
Events Snow    
T = Trace of Precipitation, MM = Missing Value Source: NWS Daily Summary

Daily Weather History Graph

Daily Weather History Graph

Search for Another Location

Airport or City:

Trip Planner

Search our weather history database for the weather conditions in past years. The results will help you decide how hot, cold, wet, or windy it might be!

Date:

Astronomy

Jan. 12, 2011 Rise Set
Actual Time 8:05 AM EST 5:44 PM EST
Civil Twilight 7:35 AM EST 6:14 PM EST
Nautical Twilight 7:02 AM EST 6:47 PM EST
Astronomical Twilight 6:30 AM EST 7:19 PM EST
Moon 11:56 AM EST (1/12) 1:03 AM EST (1/12)
Length of Visible Light 10h 38m
Length of Day
9h 39m
First Quarter, 52% of the Moon is Illuminated
Jan 12
First Quarter
Jan 19
Full
Jan 26
Last Quarter
Feb 2
New
Feb 11
First Quarter

Hourly Weather History & Observations

Time (EST) Temp. Windchill Dew Point Humidity Pressure Visibility Wind Dir Wind Speed Gust Speed Precip Events Conditions
12:53 AM 19.9 °F 7.9 °F 17.1 °F 89% 30.19 in 4.0 mi West 11.5 mph 20.7 mph 0.00 in Snow Light Snow
1:53 AM 19.9 °F 6.7 °F 17.1 °F 89% 30.21 in 2.5 mi West 13.8 mph 20.7 mph 0.00 in Snow Light Snow
2:06 AM 19.4 °F 6.0 °F 17.6 °F 93% 30.19 in 3.0 mi West 13.8 mph 19.6 mph 0.00 in Snow Light Snow
2:53 AM 19.9 °F 6.2 °F 16.0 °F 85% 30.24 in 4.0 mi West 15.0 mph 21.9 mph 0.00 in Snow Light Snow
3:22 AM 19.4 °F 6.0 °F 15.8 °F 86% 30.21 in 2.5 mi West 13.8 mph 24.2 mph 0.00 in Snow Light Snow
3:53 AM 19.9 °F 6.7 °F 16.0 °F 85% 30.25 in 2.5 mi West 13.8 mph - 0.00 in Snow Light Snow
4:26 AM 19.4 °F 6.0 °F 15.8 °F 86% 30.23 in 3.0 mi West 13.8 mph 24.2 mph 0.00 in Snow Light Snow
4:53 AM 19.9 °F 6.2 °F 15.1 °F 81% 30.27 in 3.0 mi West 15.0 mph - 0.00 in Snow Light Snow
5:53 AM 19.9 °F 6.7 °F 15.1 °F 81% 30.28 in 5.0 mi WNW 13.8 mph 20.7 mph 0.00 in   Haze
6:53 AM 19.0 °F 7.5 °F 15.1 °F 85% 30.30 in 5.0 mi WNW 10.4 mph 20.7 mph N/A   Overcast
7:53 AM 19.0 °F 6.8 °F 15.1 °F 85% 30.32 in 5.0 mi WNW 11.5 mph 24.2 mph N/A   Overcast
8:44 AM 19.4 °F 7.9 °F 15.8 °F 86% 30.31 in 2.5 mi WNW 10.4 mph 21.9 mph N/A   Overcast
8:53 AM 19.0 °F 7.5 °F 15.1 °F 85% 30.35 in 2.5 mi WNW 10.4 mph - N/A   Overcast
9:32 AM 19.4 °F 6.6 °F 14.0 °F 80% 30.33 in 1.5 mi WNW 12.7 mph 25.3 mph 0.00 in Snow Light Snow
9:53 AM 19.0 °F 9.0 °F 15.1 °F 85% 30.39 in 1.0 mi WNW 8.1 mph 18.4 mph 0.00 in Snow Light Snow
10:53 AM 19.0 °F 6.8 °F 14.0 °F 81% 30.40 in 1.0 mi WNW 11.5 mph 18.4 mph 0.00 in Snow Light Snow
11:53 AM 19.9 °F 5.7 °F 14.0 °F 78% 30.40 in 1.5 mi WNW 16.1 mph 23.0 mph 0.00 in   Haze
12:21 PM 21.2 °F 8.9 °F 15.8 °F 80% 30.36 in 2.0 mi West 12.7 mph 18.4 mph 0.00 in   Haze
12:29 PM 19.4 °F 8.6 °F 15.8 °F 86% 30.36 in 1.5 mi WNW 9.2 mph - 0.00 in   Haze
12:53 PM 21.0 °F 11.4 °F 15.1 °F 78% 30.39 in 1.0 mi WNW 8.1 mph - 0.00 in Snow Light Snow
1:53 PM 21.0 °F 10.6 °F 16.0 °F 81% 30.39 in 0.8 mi WNW 9.2 mph - 0.00 in Snow Light Snow
2:01 PM 21.2 °F 11.7 °F 15.8 °F 80% 30.35 in 1.0 mi West 8.1 mph - 0.00 in Snow Light Snow
2:53 PM 21.0 °F 8.1 °F 15.1 °F 78% 30.40 in 2.0 mi West 13.8 mph - 0.00 in Snow Light Snow
3:24 PM 21.2 °F 10.1 °F 15.8 °F 80% 30.38 in 1.0 mi West 10.4 mph - 0.00 in Snow Light Snow
3:53 PM 21.0 °F 9.3 °F 15.1 °F 78% 30.43 in 1.2 mi West 11.5 mph - 0.00 in Snow Light Snow
4:53 PM 19.9 °F 9.3 °F 16.0 °F 85% 30.46 in 1.0 mi West 9.2 mph - 0.00 in Snow Light Snow
5:51 PM 19.4 °F 7.2 °F 15.8 °F 86% 30.44 in 2.0 mi West 11.5 mph - 0.00 in Snow Light Snow
5:53 PM 19.9 °F 9.3 °F 15.1 °F 81% 30.48 in 2.0 mi West 9.2 mph - 0.00 in Snow Light Snow
6:09 PM 19.4 °F 10.4 °F 15.8 °F 86% 30.44 in 4.0 mi WNW 6.9 mph - 0.00 in   Haze
6:53 PM 19.9 °F 9.3 °F 15.1 °F 81% 30.49 in 3.0 mi West 9.2 mph 17.3 mph 0.00 in Snow Light Snow
7:27 PM 19.4 °F 8.6 °F 15.8 °F 86% 30.46 in 5.0 mi West 9.2 mph - 0.00 in   Overcast
7:53 PM 19.0 °F 8.2 °F 15.1 °F 85% 30.51 in 6.0 mi West 9.2 mph - 0.00 in   Overcast
8:53 PM 19.0 °F 8.2 °F 14.0 °F 81% 30.51 in 4.0 mi West 9.2 mph - 0.00 in   Haze
9:22 PM 19.4 °F 8.6 °F 14.0 °F 80% 30.48 in 3.0 mi West 9.2 mph - 0.00 in Snow Light Snow
9:53 PM 19.0 °F 9.0 °F 14.0 °F 81% 30.52 in 4.0 mi West 8.1 mph - 0.00 in Snow Light Snow
10:53 PM 18.0 °F 6.9 °F 14.0 °F 84% 30.53 in 5.0 mi WNW 9.2 mph - 0.00 in   Overcast
11:07 PM 17.6 °F 5.7 °F 14.0 °F 86% 30.49 in 5.0 mi West 10.4 mph - N/A   Overcast
11:48 PM 17.6 °F 4.3 °F 14.0 °F 86% 30.49 in 5.0 mi West 12.7 mph - N/A   Overcast
11:53 PM 18.0 °F 7.7 °F 14.0 °F 84% 30.53 in 5.0 mi West 8.1 mph - N/A   Overcast